Observations
| Time | Sensor | AQI | SAQ | Temp °C | Hum % | Pres Pa | CO μg/m³ | H₂S μg/m³ | NO μg/m³ | NO₂ μg/m³ | O₃ μg/m³ | SO₂ μg/m³ | CO₂e PPM | VOC PPM | PM1 μg/m³ | PM2.5 μg/m³ | PM4 μg/m³ | PM10 μg/m³ | TPS µm |
|---|---|---|---|---|---|---|---|---|---|---|---|---|---|---|---|---|---|---|---|
| Thursday 13 August 2026 | |||||||||||||||||||
| 11:07 | Trim Market St | 2 | 30.1 | 51 | 55,672 | 0 | 0 | 0.63 | 13.03 | 46.8 | 0 | 0 | 2.39 | 2.63 | |||||
| 11:06 | Trim Patrick St | 1 | 29.7 | 52 | 69,942 | 0 | 2.55 | 0.82 | 13.24 | 58.88 | 14.83 | 2 | 6.29 | 6.92 | |||||
| 11:06 | Trim Market St | 2 | 30.1 | 52 | 55,757 | 0 | 0 | 0.66 | 13.69 | 46.56 | 0 | 0 | 2.89 | 3.11 | |||||
| 11:05 | Trim Patrick St | 1 | 29.6 | 52 | 69,962 | 0 | 3.5 | 0.86 | 13.27 | 58.45 | 14.52 | 3.71 | 8.54 | 9.4 | |||||
| 11:05 | Trim Market St | 2 | 29.9 | 52 | 55,855 | 0 | 0 | 0.69 | 13.22 | 57.38 | 0 | 0 | 2.37 | 2.39 | |||||
| 11:04 | Trim Patrick St | 1 | 29.5 | 52 | 69,986 | 0 | 5.68 | 0.82 | 13.14 | 60.96 | 14.52 | 2 | 7.77 | 8.55 | |||||
| 11:03 | Trim Patrick St | 1 | 29.4 | 52 | 70,019 | 0 | 2.61 | 0.81 | 13.35 | 61.13 | 14.28 | 3.71 | 7.77 | 8.55 | |||||
| 11:02 | Trim Patrick St | 1 | 29.3 | 52 | 70,033 | 0 | 0.21 | 0.77 | 13.26 | 61.18 | 14.19 | 3.71 | 7.79 | 8.56 | |||||
| 11:01 | Trim Patrick St | 1 | 29.2 | 52 | 70,089 | 0 | 2.12 | 0.76 | 13.35 | 59.91 | 13.93 | 2.86 | 7.02 | 7.72 | |||||
| 11:00 | Trim Patrick St | 1 | 29.1 | 52 | 70,125 | 0 | 2.71 | 0.76 | 13.47 | 63.28 | 14.39 | 2 | 7.02 | 7.72 | |||||
| 10:59 | Trim Patrick St | 1 | 29.1 | 53 | 70,178 | 0 | 1.83 | 0.76 | 13.52 | 61.82 | 14.48 | 2.86 | 7.01 | 7.71 | |||||
| 10:58 | Trim Patrick St | 1 | 29 | 52 | 70,211 | 0 | 0 | 0.73 | 13.2 | 61 | 14 | 3.71 | 7.79 | 8.56 | |||||
| 10:58 | Trim Market St | 2 | 29.2 | 53 | 56,585 | 0 | 0 | 0.8 | 13.3 | 58.46 | 0 | 3.56 | 4.87 | 6.07 | |||||
| 10:57 | Trim Patrick St | 1 | 29 | 52 | 70,235 | 0 | 0 | 0.77 | 13 | 59.55 | 14.08 | 2 | 6.27 | 6.9 | |||||
| 10:56 | Trim Patrick St | 1 | 29 | 53 | 70,297 | 0 | 0.9 | 0.81 | 13.47 | 60.51 | 14.07 | 2.86 | 7.01 | 7.71 | |||||
| 10:55 | Trim Patrick St | 1 | 29 | 52 | 70,305 | 0 | 0 | 0.79 | 13.2 | 59.11 | 13.6 | 2.86 | 7.01 | 7.72 | |||||
| 10:54 | Trim Patrick St | 1 | 29 | 53 | 70,352 | 0 | 0 | 0.79 | 12.85 | 58.58 | 13.65 | 2.86 | 6.98 | 7.68 | |||||
| 10:54 | Trim Market St | 2 | 29 | 53 | 56,756 | 0 | 0 | 0.68 | 13.49 | 68.35 | 0 | 0 | 1.8 | 1.98 | |||||
| 10:53 | Trim Patrick St | 1 | 28.9 | 53 | 70,417 | 0 | 0 | 0.77 | 13.28 | 51.63 | 13.65 | 2 | 6.98 | 7.68 | |||||
| 10:53 | Trim Market St | 2 | 29 | 53 | 56,747 | 0 | 0 | 0.65 | 13.13 | 50.42 | 0 | 0 | 2.32 | 2.44 | |||||